Location: Unspecified
(0.0000°N, 0.0000°E)
Time: 17:52:58
(UTC+00:00)

Vanguard 1 - Pass Details

Date: 09 October 2020
Orbit: 650 x 3833 km, 34.3° (Epoch: 26 October)

Event Time Altitude Azimuth Distance (km) Brightness Sun altitude
Rises 16:47:10 0° 256° (WSW) 7,882 16.5 14.9°
Reaches altitude 10° 16:53:59 10° 265° (W) 6,605 17.8 13.2°
Maximum altitude 17:10:30 31° 320° (NW) 3,928 13.7 9.1°
Drops below altitude 10° 17:21:15 10° 19° (NNE) 4,259 13.1 6.4°
Sets 17:24:34 0° 30° (NNE) 4,850 13.3 5.6°
